Location: Hains Lake
(37.8540°N, 99.8578°W)
Time: 10:35:22
(UTC+00:00)

Okean O Rocket - Pass Details

Date: 11 December 2019
Orbit: 624 x 644 km, 98.2° (Epoch: 21 January)

Event Time Altitude Azimuth Distance (km) Brightness Sun altitude
Rises 23:41:18 0° 176° (S) 2,892 5.3 -4.5°
Reaches altitude 10° 23:43:31 10° 181° (S) 1,988 4.5 -4.9°
Maximum altitude 23:47:46 56° 259° (W) 745 2.5 -5.6°
Drops below altitude 10° 23:52:02 10° 338° (NNW) 2,002 4.2 -6.4°
Sets 23:54:17 0° 343° (NNW) 2,914 4.9 -6.8°
